Flag for U.S.A. Weather past 2 weeks in Worcester, Massachusetts, U.S.A.

Now
74 °F

Sunny.


Feels Like: 76 °F
Forecast: 63 / 86 °F
Wind: 5 mph from West

Location: Worcester Regional Airport

Current Time: Jul 5, 2015 at 8:14:08 PM

Latest Report: Jul 5, 2015 at 7:54 PM


Visibility: 10 mi

Pressure: 30.11 "Hg

Humidity: 64%

Dew point: 61 °F

Location of WorcesterLocation

Historic Weather in Worcester — Graph

°F

Worcester temperature yesterday

Maximum temperature yesterday: 70 °F (at 12:54 PM)
Minimum temperature yesterday: 60 °F (at 2:54 AM)
Average temperature yesterday: 65 °F

Past Weeks' High & Low Weather Summary

 TemperatureHumidityPressure
High85 °F (Jun 23, 2:54 PM)94% (Jun 21, 4:54 AM)30.18 "Hg (Jun 21, 4:54 AM)
Low50 °F (Jun 28, 10:54 PM)34% (Jul 3, 2:54 PM)29.66 "Hg (Jun 21, 4:54 PM)
Average67 °F68%29.93 "Hg
* Reported Jun 20 6:54 PM — Jul 5 6:54 PM, Worcester, Weather by CustomWeather, © 2015

Note: Actual official high and low records may vary slightly from our data, if they occured in-between our weather recording intervals... More about our weather records

Advertising

Worcester weather history for previous 24 hours

 ConditionsComfort  
Time TempWeatherWind HumidityBarometerVisibility
6:54 PM
Sun, Jul 5
77 °FSunny.6 mph58%30.10 "Hg10 mi
5:54 PM78 °FPassing clouds.9 mph52%30.09 "Hg10 mi
4:54 PM80 °FPassing clouds.9 mph45%30.10 "Hg10 mi
3:54 PM80 °FSunny.9 mph45%30.10 "Hg10 mi
2:54 PM80 °FPassing clouds.8 mph45%30.10 "Hg10 mi
1:54 PM79 °FSunny.3 mph47%30.11 "Hg10 mi
12:54 PM78 °FScattered clouds.5 mph48%30.11 "Hg10 mi
11:54 AM76 °FSunny.9 mph54%30.11 "Hg10 mi
10:54 AM74 °FSunny.9 mph57%30.11 "Hg10 mi
9:54 AM72 °FSunny.8 mph61%30.11 "Hg10 mi
8:54 AM68 °FSunny.9 mph70%30.10 "Hg10 mi
7:54 AM65 °FSunny.8 mph76%30.08 "Hg10 mi
6:54 AM62 °FSunny.13 mph80%30.06 "Hg10 mi
5:54 AM60 °FClear.14 mph83%30.03 "Hg10 mi
4:54 AM60 °FClear.13 mph83%30.03 "Hg10 mi
3:54 AM60 °FClear.14 mph83%30.02 "Hg10 mi
2:54 AM61 °FClear.13 mph83%30.01 "Hg10 mi
1:54 AM62 °FClear.15 mph80%30.01 "Hg10 mi
12:54 AM58 °FClear.8 mph87%30.01 "Hg9 mi
11:54 PM
Sat, Jul 4
60 °FClear.7 mph86%30.01 "Hg10 mi
10:54 PM61 °FClear.8 mph81%30.01 "Hg10 mi
9:54 PM61 °FClear.6 mph83%30.00 "Hg10 mi
8:54 PM62 °FSunny.6 mph83%29.98 "Hg10 mi
Weather by CustomWeather, © 2015

See weather overviewHow to use our weather pages